Theta_e
348 348 347 347 346 344 341 339 340 340 341 342 343 345 346 346 347 347 348 348 349 349 349 350 349 348 349 348 348 348 346 348 346 339 337 338 340 340 340 342 343 343 343 343 343 345 346 346 346 346 347 347 346 346 346 346 346 346 346 346 347 347 347 346 346 346 346 345 345 346 346 346 346 346 345 345 346 345 345 344 344 343 343 344 345
345 343 342 343 342 340 338 338 339 340 342 342 343 344 345 347 347 349 349 349 350 349 347 349 349 348 348 348 349 349 347 347 347 345 340 335 335 336 336 339 341 340 340 340 341 343 345 346 348 348 348 348 347 347 347 347 347 347 347 348 348 348 347 348 347 347 347 346 346 346 345 345 344 345 344 344 346 346 347 346 345 345 344 344 344
340 338 337 338 338 337 337 338 339 340 342 343 343 344 346 348 348 349 349 348 348 345 343 346 348 348 347 348 348 348 348 347 347 348 346 340 336 335 334 335 336 337 337 338 340 341 342 344 346 346 346 347 347 347 347 348 347 347 347 347 346 345 344 344 344 344 344 343 342 342 341 340 341 342 343 344 346 347 348 347 347 347 347 347 345
337 336 336 337 336 336 337 338 339 340 342 343 345 346 348 349 348 348 348 346 345 343 342 345 347 347 346 347 347 347 347 347 348 349 349 346 341 339 337 335 335 335 335 336 337 338 340 342 342 343 343 343 343 344 344 345 344 343 342 340 338 337 337 338 338 338 339 338 338 338 338 338 339 340 341 344 346 347 347 348 348 348 348 348 348
337 338 338 338 337 337 338 339 341 343 345 346 348 349 349 349 348 348 348 347 347 345 344 346 346 345 345 346 346 346 346 346 348 349 349 348 346 343 341 340 339 337 337 336 335 335 336 338 338 338 338 336 336 336 337 337 336 336 335 335 335 336 336 336 337 338 338 338 339 340 340 341 342 342 344 346 346 348 349 350 350 351 351 350 351
338 340 341 341 341 341 342 343 345 347 348 349 349 349 349 350 349 350 349 348 349 347 346 347 346 345 346 346 346 345 345 346 348 348 348 348 347 345 344 343 342 342 341 339 337 335 334 333 333 333 333 332 332 331 332 332 334 336 338 339 341 341 342 342 342 342 342 343 343 343 343 345 346 346 348 348 350 351 352 353 353 353 353 353 354
341 342 342 343 344 345 345 346 348 348 349 349 350 349 350 351 350 351 352 349 349 347 347 348 347 347 346 345 346 345 345 346 346 347 347 347 346 345 345 345 344 345 345 344 341 337 335 334 333 333 332 333 334 335 336 339 341 343 344 346 347 348 348 349 349 348 348 347 347 347 347 347 348 349 351 352 354 355 355 355 354 354 353 353 353
343 344 343 344 345 345 346 347 348 348 350 349 350 351 351 352 349 350 352 350 349 348 348 349 348 348 347 346 346 345 346 346 346 347 347 346 345 345 345 345 345 345 345 345 344 341 339 339 338 337 338 339 341 343 345 346 347 347 348 349 350 351 351 351 351 352 352 351 351 351 349 349 350 352 354 355 355 354 354 353 351 350 348 347 347
343 344 344 344 344 345 346 347 348 349 350 350 352 351 351 352 351 348 349 350 350 347 348 349 348 348 347 347 347 345 346 346 346 347 346 345 345 346 346 345 345 345 345 345 344 343 342 341 342 342 342 343 344 346 347 348 348 348 349 350 350 351 351 352 352 352 351 351 350 350 349 351 352 354 355 353 351 347 347 346 345 342 341 340 341
344 344 345 345 345 345 346 347 348 350 351 351 352 352 350 352 353 350 347 350 352 349 348 349 347 347 346 347 347 346 346 346 345 345 344 344 345 345 345 345 345 345 345 345 344 344 343 342 342 343 344 343 344 346 347 348 348 349 349 350 350 351 350 351 349 347 346 346 348 349 351 352 353 353 350 346 342 340 338 338 338 337 336 336 336
345 344 345 346 346 346 347 348 350 351 352 353 354 353 351 352 354 354 350 349 350 349 348 348 348 347 346 347 347 345 345 344 344 344 343 344 344 344 345 345 344 345 344 344 344 343 344 343 343 343 343 342 343 345 347 348 348 348 349 349 350 350 349 348 346 343 343 345 347 349 351 352 350 346 341 340 340 337 334 334 336 333 328 325 325
345 345 346 346 346 347 348 349 351 351 352 354 355 353 352 353 353 354 354 352 349 347 346 347 348 348 347 348 345 343 342 342 343 343 343 344 343 344 346 346 344 344 344 343 343 343 343 344 344 344 342 341 342 344 346 347 348 348 348 349 349 348 348 345 344 344 344 346 347 349 350 348 342 337 337 340 341 336 332 334 336 330 322 320 321
345 346 346 347 346 347 348 350 351 351 351 353 353 352 352 353 353 353 354 354 352 348 345 346 348 348 347 347 345 343 341 342 345 346 346 345 344 343 343 346 345 344 343 342 343 342 343 344 344 344 342 341 342 344 347 347 348 348 349 350 347 347 348 345 345 347 346 347 348 348 347 342 337 335 338 341 341 338 335 333 333 329 323 321 320
346 346 346 347 347 348 349 351 352 352 352 351 351 352 353 353 355 355 353 353 352 348 345 347 348 347 348 348 347 345 344 346 347 347 347 346 344 344 342 344 347 345 342 341 342 342 343 343 343 344 343 342 342 345 347 347 348 348 349 349 345 347 351 346 347 349 348 348 348 347 345 342 339 338 339 340 341 341 338 333 330 328 327 324 320
346 346 347 347 347 349 350 352 353 352 352 352 352 353 354 354 355 356 355 353 351 349 346 346 348 349 349 349 348 348 348 350 349 347 346 346 345 345 343 344 345 342 341 342 342 342 343 342 343 344 344 344 344 346 347 347 348 348 349 350 346 349 352 350 349 350 351 351 349 347 346 345 343 340 339 340 341 341 341 339 333 329 328 325 320
347 346 347 347 348 350 351 352 352 352 352 352 354 355 356 356 355 356 356 353 350 350 348 347 348 349 350 350 349 350 349 349 349 347 345 344 345 344 343 343 344 341 341 343 344 342 342 342 343 344 344 345 345 346 347 347 348 348 350 352 350 351 352 352 351 351 352 352 352 351 348 346 345 344 341 341 342 341 342 343 341 335 329 324 320
347 347 347 347 349 350 350 351 351 351 352 353 355 356 356 356 355 355 356 354 351 351 350 350 349 348 350 352 352 351 350 348 349 349 347 344 344 343 342 343 343 341 340 342 343 342 342 343 343 343 344 345 345 346 347 347 347 348 350 352 352 352 352 352 352 353 352 352 353 353 352 350 347 347 345 342 343 342 342 343 344 342 332 325 320
347 348 347 347 349 350 351 352 352 352 353 354 355 355 356 357 356 355 356 354 352 353 351 350 349 348 350 352 352 351 351 351 351 351 350 346 345 344 342 342 342 341 341 341 342 342 342 342 342 343 343 343 343 344 346 347 348 347 349 351 353 352 352 353 352 352 352 353 353 354 354 353 350 348 348 346 344 343 344 343 344 345 339 330 321
349 348 348 349 350 352 353 353 355 355 354 355 356 356 356 357 356 356 356 352 353 355 353 350 351 351 352 352 352 352 351 352 352 351 352 350 348 346 344 343 342 342 343 343 343 342 341 341 341 341 342 342 342 342 344 346 347 348 349 350 351 353 353 354 353 351 351 353 353 354 354 354 354 351 348 348 347 345 345 344 343 345 344 337 325
351 351 350 350 351 353 354 354 355 356 356 357 358 357 356 356 354 354 354 352 353 355 354 352 352 352 353 353 352 351 350 352 351 350 352 351 348 347 347 345 343 343 342 342 342 341 341 341 341 341 341 341 341 341 343 345 347 348 350 350 350 353 354 354 354 353 352 352 353 354 354 354 355 354 351 349 349 347 345 345 345 344 345 343 333
352 353 353 352 353 354 354 354 355 356 356 358 358 356 357 356 354 354 354 354 353 353 355 355 353 352 354 354 354 352 350 352 352 351 351 350 348 346 347 347 345 345 344 343 343 342 341 342 342 342 341 341 341 341 342 345 348 349 350 349 350 352 354 354 355 355 354 354 354 354 354 355 354 355 354 351 349 349 348 346 346 345 345 344 340
354 354 353 353 353 353 355 355 356 357 357 357 357 357 357 356 355 355 354 354 353 353 356 356 354 355 355 356 356 354 352 352 352 352 352 351 350 346 346 347 346 348 347 346 345 343 342 342 342 343 342 342 342 341 343 346 348 350 350 349 350 352 353 354 354 355 355 355 355 355 355 355 355 354 355 354 351 350 350 348 347 347 346 345 344
355 355 353 354 354 353 355 357 357 357 357 356 357 357 357 357 355 354 353 353 353 355 356 355 354 355 356 357 356 353 354 353 353 355 355 353 352 348 347 348 347 348 348 345 345 344 342 342 342 342 342 342 342 341 345 348 348 349 349 349 350 351 351 352 352 354 355 356 355 355 355 355 355 355 355 355 353 351 351 350 349 348 348 346 345
355 355 355 356 355 353 355 356 355 356 357 356 357 357 357 357 355 353 354 354 353 355 356 356 356 356 356 356 355 353 354 354 353 355 356 354 353 351 348 350 350 349 348 348 347 345 344 344 343 342 342 341 342 342 346 348 349 349 349 349 350 350 351 351 351 353 354 355 355 355 355 356 356 355 355 355 355 354 352 352 350 350 349 349 347
356 357 356 357 356 353 353 355 355 355 356 356 356 356 357 356 355 354 355 355 355 356 356 357 357 356 356 356 356 354 354 355 354 354 354 353 354 352 351 352 351 349 350 351 350 348 348 349 347 345 344 344 344 344 347 349 349 350 349 350 350 350 351 351 351 352 353 354 354 355 355 355 356 356 355 355 356 355 354 353 352 351 350 350 349
358 358 357 357 357 355 353 355 356 355 356 357 356 355 355 355 354 355 357 356 356 357 357 358 357 357 357 357 356 355 355 355 355 354 354 353 352 353 354 354 351 349 352 353 352 351 351 352 352 351 350 349 348 348 349 351 352 350 350 351 351 351 351 351 352 352 352 353 354 355 355 355 355 356 356 355 355 356 356 355 353 352 351 351 351
357 355 354 354 356 356 355 356 356 355 356 356 357 357 355 355 355 354 357 356 355 357 358 357 357 357 357 357 356 356 355 355 355 355 354 354 353 353 354 356 353 351 352 352 353 352 352 352 354 353 352 350 350 350 349 352 353 351 350 351 351 351 350 351 352 352 353 353 354 355 354 355 355 356 357 356 355 355 355 355 354 353 352 352 351
354 354 353 353 354 356 356 357 356 355 355 355 356 358 356 356 355 353 356 357 355 357 358 357 357 357 357 357 357 356 356 356 355 356 356 355 355 354 354 356 356 355 354 353 353 353 352 353 353 354 353 350 350 350 348 351 352 349 349 349 347 349 350 351 353 353 353 353 353 353 353 354 355 356 356 355 355 354 353 353 354 354 353 352 352
354 354 354 353 353 355 357 357 356 356 356 355 354 356 356 357 356 354 356 358 356 357 358 357 357 357 357 357 357 357 357 356 356 356 355 355 355 354 354 356 356 357 356 354 355 354 352 352 352 355 355 351 350 350 349 352 351 346 346 348 348 350 351 351 353 352 352 352 351 352 353 354 355 355 354 353 354 354 353 352 353 353 353 353 353
354 354 354 353 353 353 355 356 356 356 357 357 355 355 356 357 357 356 356 356 355 356 356 356 357 357 357 357 358 358 357 357 356 356 356 356 356 356 355 356 355 357 358 357 357 355 353 353 353 354 355 354 354 353 354 354 351 347 348 349 350 351 349 349 351 351 351 351 352 352 352 352 353 353 352 350 350 352 353 353 353 353 353 353 353
352 352 353 354 353 353 354 355 356 356 356 357 356 355 355 357 358 357 356 354 354 356 356 356 357 357 357 358 358 359 359 357 356 356 356 357 358 358 357 357 356 357 359 358 358 357 355 355 355 355 356 355 354 353 355 356 352 348 349 350 350 348 348 349 349 349 350 351 351 351 349 349 350 349 349 348 349 350 352 354 355 354 353 352 353
352 352 352 353 353 354 355 356 357 357 357 357 357 356 355 356 357 357 357 354 354 356 356 356 357 357 357 358 358 359 359 359 358 358 357 357 358 358 359 359 358 358 359 359 359 359 358 357 354 355 355 354 353 353 355 355 354 350 349 348 347 344 346 348 345 343 346 349 348 347 346 346 346 346 347 347 348 349 351 353 354 355 354 353 353
353 352 352 352 352 353 355 356 356 356 355 356 356 356 355 355 355 356 356 354 355 356 356 355 356 356 356 356 358 359 358 358 358 358 357 357 357 358 359 359 359 359 359 359 360 359 360 358 355 354 354 353 353 354 355 354 354 352 350 348 345 342 341 341 340 338 337 340 342 342 343 344 344 345 345 346 347 348 350 352 353 355 355 353 353
352 352 352 353 353 353 355 355 355 354 354 354 356 356 356 355 356 357 357 356 355 357 356 355 355 356 355 354 356 357 357 357 357 357 356 357 357 357 358 358 359 359 359 359 360 360 359 359 358 356 355 354 354 354 355 354 353 350 348 348 348 345 339 336 339 338 333 331 333 333 334 336 338 342 344 344 343 344 346 349 352 353 355 354 353
353 352 352 353 353 353 354 354 354 354 354 354 355 356 356 356 356 357 358 357 357 358 358 357 357 357 356 356 356 356 356 357 357 356 356 356 357 357 358 359 358 359 359 359 358 359 359 358 359 357 356 356 356 355 354 353 351 348 346 347 347 346 342 338 340 341 336 332 332 331 330 330 330 334 338 338 336 338 341 343 346 349 351 353 354
354 353 352 353 353 353 353 354 354 354 354 354 354 355 355 355 355 356 356 356 356 357 358 358 358 358 358 357 357 356 356 357 357 357 357 357 357 357 357 359 359 359 360 359 357 358 359 359 359 358 356 355 355 355 354 353 352 349 346 345 343 342 343 343 344 344 339 336 335 334 333 332 331 331 332 333 332 334 337 339 340 341 343 347 351
355 354 352 352 352 353 354 355 355 354 354 354 354 354 355 355 354 356 356 356 355 356 356 357 356 356 357 358 357 356 357 357 357 358 357 357 357 356 357 358 359 358 358 358 357 357 358 359 359 359 357 355 355 354 353 352 353 352 348 345 345 342 341 343 347 347 344 341 340 338 337 336 336 336 335 337 336 336 337 338 339 340 340 342 346
355 354 354 353 352 352 353 354 355 354 353 353 353 353 355 355 355 355 357 357 356 356 356 356 356 356 356 357 356 356 356 357 357 357 357 356 356 357 357 357 357 357 357 357 357 356 357 358 358 359 358 357 357 356 353 350 351 351 349 348 349 347 343 343 344 345 346 347 345 341 339 338 338 338 338 339 340 340 340 340 340 340 341 341 343
355 355 355 354 353 352 353 353 354 353 352 352 351 350 352 353 354 354 356 357 358 357 356 356 357 357 357 357 357 356 356 355 356 357 356 356 356 356 357 356 356 356 356 356 357 357 357 357 357 357 357 357 357 356 353 349 348 350 351 353 353 350 347 345 343 343 344 345 344 344 342 341 341 339 339 339 339 340 341 341 341 341 340 340 342
355 355 355 355 354 353 354 353 352 352 351 351 352 350 350 350 352 354 354 355 357 358 357 357 357 357 357 357 357 357 357 355 354 355 355 356 357 357 357 356 355 356 357 356 357 357 357 356 356 357 357 357 357 357 355 354 354 356 356 354 353 351 350 347 342 342 343 342 343 346 345 345 345 343 342 341 340 340 341 341 342 342 341 341 341
354 354 354 354 353 353 353 352 352 352 352 352 352 351 350 350 351 353 354 353 355 357 357 357 357 356 355 356 356 355 354 352 351 352 352 353 353 355 357 356 355 356 357 357 358 358 358 357 357 358 358 358 358 357 357 357 357 356 354 353 353 352 353 351 344 340 341 344 347 348 346 346 348 346 343 343 343 342 342 342 342 343 343 343 343
353 353 353 353 353 353 353 352 352 352 352 352 351 351 351 351 351 352 352 351 351 353 354 355 356 357 356 356 355 353 351 350 350 350 350 350 350 351 353 353 354 355 357 358 358 358 358 358 358 357 357 356 355 355 355 356 355 354 354 354 355 354 355 356 352 343 340 344 349 351 347 346 348 347 345 346 346 346 346 345 343 343 342 344 344
352 352 352 352 352 352 352 352 352 352 352 351 350 350 351 351 350 350 351 351 351 350 352 354 355 356 357 357 356 354 351 350 350 350 350 350 350 350 350 350 351 352 355 357 358 359 359 358 358 356 356 356 355 355 354 353 354 354 354 354 355 355 356 358 357 352 347 345 348 351 350 347 349 348 345 346 347 348 349 348 344 342 342 343 345
352 352 351 351 351 352 351 351 351 351 351 350 350 350 350 349 349 349 350 353 354 353 353 353 353 353 354 355 355 355 354 351 349 350 350 349 349 349 349 349 349 350 351 353 354 356 358 358 358 358 357 357 357 356 354 352 353 354 354 354 356 357 357 357 356 356 353 348 348 351 352 350 350 350 348 347 349 349 349 348 345 343 343 343 344
351 352 351 351 351 350 350 350 350 350 350 349 349 349 348 347 347 347 348 351 354 355 354 353 352 351 350 351 351 352 351 349 348 349 349 349 349 349 349 349 349 349 349 350 350 351 354 356 358 359 357 356 356 354 349 348 350 353 354 355 356 357 358 357 356 355 352 349 349 352 353 351 351 353 352 351 351 351 349 349 348 347 346 345 344
351 351 351 351 351 350 350 350 349 350 350 349 348 348 346 347 346 346 346 348 351 353 353 352 352 350 348 348 348 348 348 347 347 348 350 352 353 353 352 352 352 351 350 351 351 350 351 352 354 355 353 352 353 350 346 346 349 352 354 354 355 356 355 355 354 351 348 347 349 352 353 352 352 353 353 353 352 353 352 351 350 349 348 347 346
350 350 350 350 351 350 351 351 350 350 351 349 349 349 348 348 348 347 347 347 349 350 349 349 348 348 348 348 347 347 347 347 347 349 351 353 354 354 354 354 354 354 353 352 352 352 353 352 352 353 352 352 353 352 350 351 351 351 351 352 353 352 351 352 352 351 350 350 350 352 353 353 352 353 354 353 353 353 353 353 351 351 350 348 347
350 351 351 352 352 352 352 353 352 353 353 351 350 350 350 349 348 347 347 348 348 349 349 349 348 347 347 347 347 348 348 347 348 349 350 351 352 353 354 355 355 355 355 353 350 349 350 351 351 352 352 351 352 351 350 351 351 349 350 352 353 352 352 354 355 354 354 354 352 352 353 354 353 353 354 354 354 354 354 354 353 352 352 351 350
351 352 352 352 353 353 353 353 353 354 354 353 351 350 350 349 348 347 348 348 349 349 349 349 349 348 348 346 346 348 349 349 350 350 349 349 350 352 354 355 355 355 354 353 351 350 349 350 350 351 351 350 350 350 349 349 349 348 348 350 352 354 355 357 356 354 353 354 354 353 353 354 354 354 355 355 354 354 354 355 354 353 353 353 353
350 351 352 352 352 353 353 353 354 354 354 354 353 352 351 350 350 349 349 349 349 350 350 350 349 349 349 349 348 348 349 350 350 349 347 348 349 351 354 355 355 355 354 353 354 353 352 352 351 351 351 351 351 351 350 349 349 348 347 348 350 352 356 356 354 354 354 355 355 354 354 355 355 354 355 355 355 355 356 356 356 354 354 354 354
345 346 347 349 349 350 351 352 352 353 353 354 353 353 353 352 352 351 351 351 350 351 351 350 350 350 350 350 350 349 349 349 348 348 348 348 348 349 352 353 354 354 355 354 355 354 353 353 353 353 353 353 352 352 352 350 349 347 347 347 348 351 354 354 354 355 355 355 356 355 354 355 355 354 354 354 354 355 356 357 356 355 355 355 355
Wind_Speed
9 9 8 8 9 10 11 11 11 11 11 11 10 9 8 7 6 5 4 4 4 4 4 3 4 4 4 4 4 5 6 6 6 5 3 2 2 3 2 2 2 3 4 4 3 3 5 5 6 6 6 6 7 7 7 7 7 8 8 8 9 10 10 10 10 11 11 11 11 11 11 11 12 12 12 12 12 12 13 13 14 14 14 14 15
10 10 10 10 10 11 12 11 11 12 11 11 10 9 7 5 4 4 4 4 4 4 4 3 3 3 3 3 3 4 5 5 6 6 5 5 4 3 3 3 3 3 4 4 4 4 4 4 5 5 5 6 7 7 7 8 8 8 9 9 10 10 10 10 10 11 11 11 11 11 11 11 12 12 12 12 12 13 13 14 14 14 14 15 15
11 12 12 12 11 11 12 11 11 11 11 10 8 6 5 4 4 5 6 6 5 5 5 5 3 3 4 3 3 3 3 4 4 4 4 5 5 5 5 4 4 4 4 4 4 4 4 4 4 4 5 6 6 7 7 8 8 8 9 9 10 10 10 10 10 10 10 11 11 11 11 12 12 12 12 12 12 13 14 14 15 15 15 16 16
12 12 12 12 12 12 11 11 10 10 9 7 6 5 5 5 6 7 8 8 7 6 6 5 4 4 4 3 3 3 3 3 3 3 3 5 6 6 5 5 5 5 4 4 4 4 4 4 4 4 5 5 6 7 7 7 8 8 9 9 10 10 11 11 11 11 11 12 12 13 13 13 13 14 14 13 13 14 15 16 16 16 17 18 18
12 12 12 12 12 11 11 10 9 8 7 6 5 5 5 6 7 7 8 8 7 6 6 5 4 5 5 4 4 4 4 4 3 3 3 4 5 6 6 6 5 5 5 5 4 4 5 5 5 5 5 6 6 7 7 8 8 9 9 10 10 11 12 12 13 13 13 14 14 14 14 14 14 14 14 14 15 15 16 17 18 18 18 19 20
11 11 10 11 11 10 10 8 7 6 5 5 5 5 6 6 6 7 7 7 6 6 7 5 5 5 5 5 5 6 6 5 4 4 4 4 4 6 6 5 5 6 6 6 6 6 5 5 5 5 6 6 7 7 8 8 9 9 10 11 11 12 13 13 14 14 14 14 15 15 15 15 15 15 14 14 15 16 16 18 19 19 19 19 20
10 9 9 9 9 8 7 6 5 5 5 5 5 5 6 6 6 6 5 6 6 6 6 5 5 5 6 7 6 7 7 6 6 5 5 5 5 5 5 5 5 6 6 7 7 6 6 6 6 6 6 6 6 7 7 8 9 9 10 11 12 13 13 14 14 14 14 15 15 15 15 15 16 15 14 15 15 16 17 18 19 19 19 19 18
8 8 7 7 7 6 6 5 5 4 4 4 5 5 5 5 5 5 5 5 5 5 5 5 5 5 6 7 7 8 8 7 7 5 4 5 5 4 4 4 4 5 5 6 7 7 6 6 6 6 5 5 6 6 7 8 8 9 10 11 12 13 14 15 15 15 14 14 15 15 15 15 15 15 14 14 15 16 16 17 17 18 18 18 18
7 6 6 6 6 6 5 5 4 4 4 4 4 3 4 4 5 5 4 4 4 4 4 4 5 4 5 5 6 8 8 7 7 5 5 5 5 4 4 4 4 4 5 5 7 7 6 6 6 5 5 5 5 6 6 7 8 9 10 12 13 14 16 16 15 15 14 13 13 14 14 14 14 14 14 13 14 15 15 15 15 15 16 16 16
6 5 6 6 7 7 6 5 5 4 3 3 2 3 4 4 5 5 4 4 3 4 4 4 4 4 4 4 6 7 7 7 7 7 7 6 5 4 3 3 4 4 4 5 6 6 6 6 6 5 5 5 5 6 6 7 8 9 11 12 14 16 17 16 16 15 14 13 13 13 13 13 13 13 13 12 13 15 15 14 13 13 13 14 14
7 6 7 7 8 8 7 6 5 4 2 2 2 3 4 5 5 4 5 4 4 4 5 5 4 4 4 4 5 6 5 6 6 6 6 5 5 4 4 4 4 4 4 5 5 6 6 6 6 5 5 5 5 5 6 7 8 10 12 13 15 16 16 16 16 16 15 14 13 13 13 13 13 12 12 12 14 15 15 14 12 12 13 14 14
8 8 8 8 8 8 8 7 5 3 2 2 2 3 3 4 5 5 5 4 4 5 6 5 3 3 4 4 4 4 4 4 5 5 5 4 4 4 3 3 4 5 5 5 4 4 5 5 5 5 5 4 4 4 5 7 9 11 13 14 15 15 15 16 17 18 16 15 13 13 13 13 12 12 13 13 15 17 17 15 13 13 14 14 13
8 8 8 9 8 8 8 7 5 3 2 2 2 2 3 3 4 5 5 5 5 6 7 6 4 4 4 3 3 4 4 4 4 4 4 3 3 3 3 3 3 4 4 4 3 3 4 4 5 6 6 5 5 5 6 8 10 12 14 15 14 14 15 16 18 19 18 16 14 14 14 14 14 13 14 14 16 18 19 18 16 15 15 15 14
8 8 8 9 9 8 8 6 5 4 3 2 2 2 2 3 4 4 5 6 5 5 6 6 5 5 4 3 3 3 4 5 4 3 3 2 1 2 4 3 2 3 4 3 3 3 4 5 5 6 6 6 5 6 7 9 11 13 14 15 13 13 15 16 17 19 19 18 17 17 16 16 16 15 15 15 16 18 19 20 18 17 16 15 15
8 8 8 9 9 9 7 5 4 3 2 2 2 2 2 3 4 4 4 4 5 5 6 6 5 4 3 3 3 2 4 6 5 5 4 1 1 1 3 3 2 3 3 3 3 4 4 5 6 6 6 6 6 6 8 10 12 13 13 14 13 13 15 16 16 18 19 20 20 20 19 19 18 17 17 16 17 18 19 20 20 20 18 17 16
8 8 8 9 9 8 6 5 4 3 2 1 1 1 1 2 3 4 4 3 4 5 5 6 6 4 2 1 2 1 3 5 6 6 6 4 3 2 3 3 2 3 3 2 3 3 4 5 5 6 6 7 7 7 8 10 12 13 12 13 13 14 15 15 15 16 17 18 19 20 21 21 21 20 19 18 18 18 19 20 22 22 21 19 18
8 8 9 10 9 7 6 6 4 3 2 0 1 1 1 2 2 4 4 4 4 4 4 6 6 5 4 2 1 2 3 5 5 4 6 7 5 3 3 3 2 2 2 2 3 4 4 5 5 5 6 6 7 8 9 10 11 12 12 12 13 14 15 16 15 15 15 16 17 18 19 20 21 21 20 19 19 19 19 20 22 23 23 21 20
8 8 9 10 9 7 7 6 5 3 2 1 1 1 1 2 2 2 3 3 4 4 3 4 4 6 5 4 3 2 3 5 4 2 5 7 7 6 5 3 2 1 2 2 3 4 5 5 5 5 6 6 7 8 9 10 11 12 12 12 12 13 15 16 15 14 14 15 15 16 17 18 19 20 20 20 20 20 20 20 21 23 24 23 22
8 8 9 9 8 7 7 6 5 4 2 1 1 1 1 1 1 2 1 2 4 3 3 3 3 4 4 4 3 2 2 4 4 2 3 5 7 7 6 5 3 2 2 2 3 4 4 5 5 6 7 7 8 8 8 9 10 11 11 12 11 11 13 15 15 15 14 14 15 15 16 16 17 18 19 19 20 20 20 20 21 23 24 24 23
9 9 10 10 8 7 6 6 5 4 4 3 2 2 1 1 0 1 1 1 3 3 2 3 2 2 3 3 4 3 3 4 5 4 2 3 5 6 7 7 5 5 5 4 4 4 5 5 5 6 7 8 8 9 8 9 9 10 10 10 10 9 11 13 14 15 15 15 15 16 15 15 16 16 17 18 19 20 20 20 21 22 23 24 24
9 9 9 9 9 8 7 6 5 5 4 4 3 2 2 2 1 0 0 0 2 2 2 2 2 3 3 3 3 3 2 3 4 4 3 3 4 5 6 7 6 6 7 6 6 6 6 5 5 7 7 8 8 9 9 9 9 9 9 9 8 8 10 11 13 14 15 16 16 16 16 16 16 16 16 17 17 18 19 19 20 21 22 23 24
9 9 9 9 9 9 8 6 6 5 5 4 3 3 3 2 1 1 1 1 1 1 1 1 2 2 2 3 3 2 2 3 4 4 4 3 3 4 6 6 5 6 8 8 7 7 7 5 6 7 8 8 8 8 8 8 8 8 8 8 9 9 10 11 12 13 14 15 16 17 17 16 16 16 15 16 16 17 18 19 19 20 21 22 23
10 10 10 9 8 8 7 6 6 6 5 4 4 3 3 3 2 2 1 1 0 1 1 1 1 1 1 2 2 2 2 2 4 5 4 3 3 4 5 6 5 5 8 9 7 8 8 7 7 7 8 8 8 7 6 6 7 7 7 8 9 10 11 12 13 13 13 14 15 15 16 16 16 16 15 15 15 16 17 18 18 19 20 20 21
11 10 10 10 9 9 8 7 6 6 6 6 5 5 4 3 2 2 2 1 2 3 3 2 2 2 1 1 1 1 1 2 3 3 4 3 3 3 4 5 4 4 7 8 7 7 8 9 8 8 8 8 7 6 4 5 6 7 7 8 9 10 12 13 13 13 13 13 13 14 15 16 16 15 15 14 14 15 16 17 17 18 19 20 20
11 11 10 10 10 10 9 8 8 7 7 7 7 6 5 4 3 2 2 2 3 4 4 3 3 3 3 2 2 2 1 1 2 2 3 3 2 2 4 4 3 4 6 6 6 5 6 9 9 9 8 7 7 5 4 5 6 8 9 9 10 11 12 13 13 13 12 12 12 13 14 15 15 15 14 14 13 13 14 16 17 17 18 19 19
12 12 11 10 10 10 10 9 8 8 8 7 7 7 6 5 3 3 3 4 4 4 4 4 4 4 4 3 3 2 2 1 1 1 1 2 2 2 3 3 3 3 3 4 4 4 4 7 7 7 8 7 7 6 5 6 7 9 11 11 12 12 12 13 13 13 13 13 13 14 15 15 14 14 13 13 13 12 13 15 16 17 17 18 19
12 12 11 11 12 11 11 10 8 8 8 7 7 6 6 5 4 3 4 4 4 4 4 4 5 5 5 4 4 3 2 2 2 1 2 2 2 2 2 3 3 3 3 2 3 3 4 5 4 4 6 7 7 6 6 6 7 10 11 12 13 13 14 14 14 14 14 14 14 15 16 15 14 13 12 12 12 12 12 13 15 16 16 17 18
12 11 10 11 13 12 11 9 8 7 7 7 7 6 6 5 5 4 4 4 4 4 5 5 5 5 5 5 5 4 3 2 2 2 2 2 2 1 1 2 3 3 4 3 3 3 3 5 4 3 6 9 8 7 7 7 7 10 11 12 14 14 15 15 14 15 15 15 16 16 16 14 13 13 13 12 11 11 11 12 14 15 16 16 17
12 10 9 10 12 12 11 9 8 7 6 6 7 7 7 6 5 4 4 4 5 5 5 4 5 5 5 5 5 5 4 4 3 3 2 2 2 2 1 1 2 3 3 3 4 4 4 5 5 5 8 11 9 8 8 7 8 10 11 12 13 14 15 15 15 15 15 15 15 15 14 12 12 13 13 12 10 10 10 11 13 14 15 16 16
12 11 10 9 10 11 10 9 7 7 7 6 7 8 8 7 6 5 5 5 5 5 5 5 5 5 5 5 5 5 5 5 5 4 4 3 3 3 3 2 3 3 3 3 4 4 5 6 6 6 8 10 8 8 7 7 8 9 10 12 12 13 14 14 14 14 14 14 14 14 13 13 12 12 12 11 10 10 10 11 12 13 15 16 16
11 10 10 9 10 9 9 8 7 6 7 7 7 8 8 8 7 6 6 6 6 6 5 5 5 5 6 6 6 6 6 6 5 5 5 5 5 4 4 4 4 4 4 4 4 4 5 6 7 7 8 8 8 8 7 7 8 9 10 11 12 13 13 13 13 13 13 13 13 14 14 13 12 12 12 11 11 11 11 11 11 12 14 16 16
11 10 9 9 9 9 8 7 7 6 6 7 7 8 8 8 7 7 6 7 7 7 6 6 6 6 7 7 7 7 7 7 6 6 6 6 6 6 6 6 6 5 5 5 6 6 6 7 8 8 8 8 8 8 9 8 9 10 11 12 12 12 12 12 12 12 11 12 13 13 13 13 13 13 13 13 13 13 13 13 12 12 13 15 16
11 10 9 9 9 9 8 8 8 7 7 7 7 8 9 9 9 8 8 8 8 8 7 7 7 7 8 8 8 8 8 8 8 7 7 7 7 7 7 7 7 7 6 6 8 9 8 8 8 9 9 9 9 9 10 10 10 11 12 12 12 12 12 11 11 11 10 11 12 12 13 13 13 13 13 13 13 14 14 14 14 14 13 14 15
11 10 10 9 9 8 9 9 8 8 8 7 8 9 10 11 10 9 9 9 9 9 9 9 8 8 8 9 9 9 9 9 9 9 9 8 8 8 8 8 8 8 7 8 8 9 10 9 9 9 9 10 10 10 10 11 12 14 14 13 12 12 12 11 11 10 11 11 12 12 13 13 13 13 13 13 13 14 14 14 15 15 14 14 15
11 11 10 10 10 9 9 9 9 9 9 9 9 10 10 11 11 10 9 10 10 9 9 9 8 8 8 9 9 9 8 9 9 9 9 9 9 9 9 9 9 9 8 8 9 10 11 11 10 10 10 10 11 12 13 14 15 15 15 14 13 12 12 12 11 11 13 14 14 14 14 14 14 14 13 14 14 14 13 14 14 15 15 14 14
10 11 11 11 10 10 10 10 9 9 9 9 10 11 11 11 11 11 10 10 10 10 9 9 8 8 8 9 9 9 9 9 10 9 9 9 9 10 10 10 10 10 9 9 10 10 10 11 11 11 12 12 13 14 14 15 15 15 15 15 15 13 13 13 12 13 16 18 17 17 16 15 14 14 14 15 15 14 14 14 14 15 15 15 14
11 11 11 11 11 11 10 10 10 10 10 10 10 11 11 11 11 11 11 12 12 11 11 11 10 9 9 9 9 9 9 10 10 10 9 9 9 10 11 10 10 11 10 11 11 11 11 11 12 12 13 14 14 15 15 14 13 14 17 18 17 15 16 16 13 13 17 19 20 20 19 17 17 17 17 17 17 16 15 14 15 16 16 15 14
12 11 11 11 11 11 10 10 10 10 11 11 12 12 12 12 13 13 12 13 13 13 13 13 12 12 11 11 10 10 10 10 10 10 10 10 10 10 10 11 11 11 12 12 12 12 12 12 13 13 13 13 13 14 15 16 15 16 18 18 17 17 19 20 19 17 16 17 21 23 21 20 21 21 21 21 20 19 17 15 15 16 15 14 13
13 12 11 11 12 12 12 11 11 11 12 12 13 13 13 14 14 14 14 14 14 15 15 15 13 13 12 12 12 11 11 12 11 11 11 11 11 11 11 12 11 11 12 12 12 13 13 13 13 13 13 13 13 13 16 18 18 16 15 15 16 18 21 23 23 22 20 21 22 22 21 23 24 25 26 25 23 20 18 16 15 14 13 12 11
13 13 12 12 12 12 12 13 13 13 13 13 14 14 15 15 15 15 16 16 15 15 16 16 15 14 14 13 13 12 13 14 13 13 12 12 12 12 12 12 13 13 12 12 13 13 13 14 13 12 12 13 13 14 14 15 14 12 11 11 14 19 21 22 24 24 23 24 22 18 19 22 24 27 29 28 26 23 20 17 15 14 13 11 11
13 13 13 12 12 12 12 13 14 13 13 13 14 14 14 15 15 15 16 17 16 16 17 17 17 17 17 15 14 14 14 15 15 15 15 15 15 15 14 14 15 14 13 13 13 13 12 13 12 11 11 12 12 12 12 12 11 12 14 13 14 17 18 19 23 24 23 22 19 18 22 24 23 26 30 28 26 24 22 20 19 18 16 13 12
15 16 15 14 13 12 12 13 13 12 12 13 14 14 13 14 15 16 17 18 18 18 18 19 18 18 18 17 17 18 18 17 16 16 16 16 16 16 16 16 16 15 14 14 13 13 12 12 12 11 11 12 13 13 13 14 13 12 13 13 13 16 16 15 19 22 24 23 18 18 26 29 25 26 28 26 23 23 22 21 20 19 17 14 12
17 18 17 17 16 13 12 12 12 12 12 13 15 14 13 14 15 16 18 18 18 19 19 20 19 19 18 17 18 19 20 20 18 18 18 17 17 17 17 17 17 17 16 16 15 14 13 13 13 13 13 14 15 15 15 15 14 13 14 14 13 14 13 12 13 17 22 26 23 21 27 30 26 26 28 26 23 21 20 20 19 16 15 13 12
17 17 17 18 17 15 14 13 12 12 12 14 15 15 14 14 14 16 17 16 16 17 18 19 19 19 19 18 17 16 18 20 20 19 19 19 17 17 17 17 17 18 18 18 18 17 16 16 15 15 15 16 16 17 17 17 16 17 18 17 14 13 13 12 13 14 18 26 27 23 25 28 24 23 25 24 21 20 19 19 17 14 14 13 12
17 17 17 17 17 16 14 14 14 12 12 14 15 15 15 14 13 15 17 17 16 16 17 18 19 20 20 20 20 19 20 22 22 21 20 20 19 18 18 18 19 18 18 18 19 20 20 19 18 18 19 19 19 20 22 22 22 21 19 18 16 14 14 13 14 17 21 26 26 20 22 26 21 17 19 20 19 19 19 19 17 15 14 14 13
15 17 18 17 17 17 16 16 16 14 14 16 16 15 15 15 14 15 16 17 18 17 18 19 19 20 21 21 22 22 22 23 23 22 21 19 18 18 18 19 19 19 19 19 18 19 20 21 21 22 24 25 25 26 27 26 26 24 21 20 18 16 17 17 19 24 27 27 23 17 18 22 18 14 17 19 17 17 18 19 19 15 14 14 12
11 13 14 13 14 16 16 16 16 15 15 16 17 16 17 17 16 15 15 16 17 18 19 20 20 21 21 22 22 23 23 24 24 23 21 17 16 17 18 18 18 18 19 19 18 17 17 19 21 22 23 23 23 25 24 23 24 26 25 24 22 21 23 23 22 23 22 22 20 14 15 18 16 14 18 18 16 15 16 18 19 16 14 14 11
8 8 8 8 9 10 11 12 13 12 12 15 17 16 17 17 16 16 15 15 15 16 18 18 19 20 21 22 23 22 22 23 23 22 20 18 17 17 18 18 17 16 17 20 22 22 20 19 20 21 21 22 22 22 22 21 22 25 25 23 21 21 21 18 16 16 15 15 14 12 14 18 16 15 18 17 15 17 17 16 16 16 15 13 11
7 6 6 7 7 7 7 8 10 10 9 12 14 15 16 16 16 15 16 15 15 16 16 16 16 17 18 19 20 20 20 20 20 19 19 19 18 17 17 17 17 16 18 20 21 22 23 23 24 25 25 25 25 24 23 22 21 22 24 23 19 17 16 13 14 16 16 16 15 12 13 16 15 14 16 16 15 18 18 15 14 15 16 15 14
8 6 6 6 5 4 4 5 7 8 8 10 11 12 13 15 15 15 15 15 15 15 14 14 15 15 14 15 15 16 17 17 17 17 17 17 17 16 15 16 16 17 20 20 16 16 20 24 27 28 28 28 27 26 26 24 21 20 23 25 22 17 14 14 15 16 18 19 16 11 11 15 17 15 15 17 17 17 16 13 14 16 18 18 18
7 6 6 6 5 4 4 3 2 4 6 8 8 9 11 12 13 14 14 13 13 12 10 10 12 12 13 13 13 13 13 13 14 14 13 14 15 14 13 13 15 17 18 17 14 14 17 19 21 23 24 26 28 28 29 28 25 22 23 26 24 18 16 16 16 15 15 16 15 12 11 15 18 17 16 17 16 15 15 14 14 17 18 18 20
Wind_Direction
104 100 100 100 100 105 110 115 117 115 116 117 116 112 106 97 83 70 52 34 28 23 21 29 34 34 40 39 37 36 35 35 32 31 21 357 329 308 311 309 308 303 304 307 303 304 305 313 324 326 327 325 326 325 322 324 324 326 330 329 330 328 324 324 325 325 324 324 324 322 320 317 315 312 311 308 304 301 298 295 293 292 290 287 285
105 104 103 103 103 107 109 109 110 111 112 113 112 105 95 79 56 36 17 9 7 4 9 23 33 29 22 25 36 38 34 29 27 28 23 19 10 349 350 347 336 323 313 312 303 287 282 290 303 310 315 316 318 318 318 321 320 322 324 323 323 321 319 319 321 321 320 321 321 320 318 317 316 313 312 310 304 301 297 295 295 293 291 289 288
107 105 105 105 106 107 108 107 107 110 112 109 103 91 75 51 38 30 26 33 31 21 20 24 31 27 14 13 25 31 29 22 21 23 18 18 21 17 8 3 358 349 336 324 311 297 290 284 288 298 301 303 306 307 309 312 313 316 317 318 319 320 323 324 324 325 325 326 327 327 328 328 327 324 320 315 308 303 300 298 296 295 293 292 294
109 106 106 106 108 108 108 109 111 113 111 104 93 78 60 48 49 46 44 46 44 33 25 28 35 28 18 13 11 12 9 8 12 8 6 16 24 28 23 16 10 4 358 344 333 324 315 307 305 307 307 309 312 310 312 315 318 324 326 329 333 336 340 341 340 340 340 340 340 339 339 338 336 333 327 318 312 309 307 306 305 303 301 298 296
112 110 109 110 111 113 112 113 116 115 111 102 90 72 57 52 50 47 44 43 43 33 24 31 29 16 17 15 6 2 356 357 354 344 351 4 18 27 31 29 24 17 13 6 1 355 348 341 334 331 330 332 333 334 336 339 341 345 347 349 352 354 354 353 351 350 349 349 348 347 345 343 340 336 328 321 319 318 316 314 311 308 305 302 298
118 116 115 117 118 119 120 120 121 117 113 106 88 65 53 50 45 41 36 33 33 26 26 36 26 12 8 3 353 352 352 347 338 336 341 344 4 19 24 27 28 26 22 18 18 15 10 4 355 350 348 349 349 352 356 358 1 0 1 3 4 4 1 359 357 355 354 352 351 348 346 344 340 336 331 330 329 326 320 315 313 311 308 306 304
125 124 124 127 127 128 130 128 127 121 115 103 77 57 50 44 40 37 28 24 23 19 25 28 21 15 7 3 357 355 353 346 341 337 333 336 349 1 7 12 19 26 26 23 22 22 20 14 8 4 1 3 5 8 11 11 12 10 9 9 8 5 1 358 355 353 352 350 349 346 344 341 340 339 338 337 332 326 321 318 318 317 315 315 313
133 133 134 140 142 140 142 139 133 127 118 95 65 51 49 40 35 37 26 21 22 22 26 16 11 12 10 10 8 8 4 357 352 341 332 339 342 340 348 357 3 16 25 25 23 19 18 17 14 13 13 17 19 20 19 17 17 14 11 8 4 1 358 354 351 349 347 346 344 343 342 340 341 344 343 339 332 327 325 323 323 321 321 322 321
147 145 147 155 158 157 155 151 143 132 116 86 60 52 57 48 36 34 27 22 27 33 30 14 9 12 16 17 12 13 12 10 9 3 3 9 0 339 329 333 342 358 10 14 17 15 10 10 12 13 14 19 21 21 22 22 18 12 7 3 1 360 358 356 353 351 347 345 344 344 345 345 348 349 346 342 340 337 335 333 331 329 330 331 331
169 164 161 163 165 166 163 158 151 137 113 81 57 50 63 62 43 33 37 38 33 31 27 19 17 21 28 22 7 7 8 9 16 19 22 25 22 11 352 342 343 348 358 2 7 10 5 1 2 4 7 10 17 22 25 21 12 6 2 1 2 1 0 0 360 359 358 357 356 355 355 353 353 351 351 354 355 352 350 348 346 346 347 345 343
175 169 165 164 166 167 164 160 154 142 116 82 55 45 58 61 48 45 49 48 40 27 21 16 15 18 19 8 357 2 7 3 7 17 23 25 21 19 10 4 5 0 3 6 4 4 2 357 356 359 1 6 17 25 23 12 4 1 1 2 4 5 6 7 10 12 12 12 10 6 2 359 358 359 4 9 7 5 5 5 5 5 1 355 351
169 166 163 163 167 169 166 161 156 150 129 93 66 56 60 53 48 57 57 48 40 31 24 17 13 8 359 353 350 359 12 0 349 348 352 353 357 9 7 1 13 15 11 13 10 6 2 1 3 5 6 8 17 19 11 4 2 2 3 6 8 12 16 18 23 25 23 21 18 14 9 7 9 12 16 17 14 14 15 17 15 10 5 3 0
164 164 163 166 171 172 168 163 158 158 148 121 91 73 68 53 44 52 55 47 41 37 31 26 29 25 10 8 10 10 18 4 341 322 314 319 340 8 25 17 13 17 19 24 25 20 10 10 13 13 10 8 9 6 6 8 8 9 9 10 14 21 24 25 30 32 30 29 26 22 19 18 19 20 20 19 18 18 19 20 17 11 9 9 7
165 164 165 168 172 172 170 168 165 167 163 142 103 75 59 41 34 41 48 47 47 43 35 32 36 28 12 22 38 41 42 22 6 353 327 319 350 19 43 45 23 19 30 42 39 29 15 13 15 14 11 8 5 4 10 13 14 14 12 13 19 27 27 27 31 32 31 31 30 27 25 24 24 22 22 21 20 20 21 21 19 16 13 12 11
171 168 167 169 171 171 174 177 176 177 171 146 91 66 40 28 27 37 41 44 52 45 36 31 27 15 359 26 32 37 59 34 24 28 20 31 44 39 62 60 49 45 50 48 34 25 14 16 17 16 14 9 5 6 12 15 14 15 15 17 24 27 27 27 28 29 28 28 28 26 24 23 23 24 24 22 19 20 21 21 20 20 19 17 13
177 175 172 172 172 173 182 188 190 196 191 154 59 44 27 20 22 34 33 35 45 42 38 31 26 20 0 26 5 3 56 25 11 28 33 50 58 55 83 77 62 63 61 40 16 11 9 13 17 18 16 9 5 4 6 9 9 12 14 18 24 26 25 26 26 26 25 25 25 23 21 19 18 20 21 22 19 18 20 21 20 21 22 19 15
180 180 177 175 175 179 191 195 200 208 205 263 351 350 8 10 16 32 30 29 34 33 40 35 39 49 37 24 15 38 42 5 1 34 37 44 52 63 94 97 86 67 58 46 16 4 359 0 7 11 8 4 359 357 358 2 5 7 9 14 21 22 22 22 22 22 21 20 20 20 18 16 15 15 16 19 18 16 18 19 20 21 22 20 16
181 181 180 179 181 185 190 194 200 207 212 240 309 311 333 358 16 35 31 33 36 33 42 42 46 52 42 33 29 23 8 349 351 29 37 45 52 62 78 81 89 63 38 27 8 0 352 348 349 349 348 348 347 349 352 357 2 3 3 7 15 20 20 19 19 19 17 14 14 14 15 14 12 12 12 14 15 15 16 17 19 21 22 21 16
181 185 185 186 189 190 189 192 196 204 216 222 245 299 304 321 22 41 41 43 44 36 38 47 43 36 35 34 27 30 26 5 357 359 25 45 47 53 59 55 59 47 20 7 352 350 347 341 339 336 337 340 343 345 345 349 356 359 359 1 8 18 19 18 18 17 14 9 7 8 8 9 9 9 9 10 12 13 14 15 18 20 22 22 18
187 190 192 195 198 198 198 199 199 210 218 223 236 248 245 223 175 37 52 56 51 45 34 36 32 21 25 25 30 59 67 37 20 10 356 17 38 45 41 44 56 44 26 16 0 357 355 344 336 337 340 345 350 351 346 347 354 356 358 0 5 14 15 15 15 15 12 8 4 2 1 2 4 5 6 6 9 11 11 13 16 20 23 23 20
198 197 198 201 205 207 211 210 209 218 221 223 229 219 204 197 207 308 199 94 54 54 41 28 24 22 21 22 34 58 65 36 26 24 8 7 29 32 24 30 47 41 26 13 359 0 1 345 335 339 342 346 352 352 350 351 356 358 1 3 3 5 6 6 6 6 6 4 3 1 358 356 358 0 2 2 4 8 9 10 13 17 22 24 23
209 208 208 209 212 213 216 217 216 221 222 221 223 211 198 191 210 246 217 184 68 53 34 17 21 23 22 30 38 36 27 20 19 22 19 11 5 15 22 19 26 32 21 13 9 7 5 350 337 335 332 337 344 347 351 352 353 357 359 360 357 354 354 354 355 356 356 357 359 360 357 354 353 355 358 358 357 2 6 6 8 12 18 22 23
217 219 219 218 220 219 218 221 220 220 219 218 217 213 205 201 208 216 218 229 290 317 298 292 330 354 8 26 28 20 19 12 14 14 7 5 356 5 22 11 7 21 14 17 22 14 7 356 341 331 324 326 334 339 346 350 349 349 349 350 349 346 346 345 346 349 349 350 352 354 356 354 351 351 354 355 352 353 359 2 3 6 11 17 21
220 223 224 223 224 224 224 227 224 220 220 218 214 211 207 206 213 218 229 258 284 291 282 265 260 262 279 322 329 340 358 349 2 7 4 11 355 352 16 8 359 12 10 15 22 17 12 5 354 344 334 331 334 333 327 333 337 337 336 338 341 340 340 340 341 342 341 343 345 347 350 351 350 350 351 353 350 347 351 355 358 360 4 10 15
219 220 222 222 224 225 225 228 227 226 224 219 213 210 206 208 221 229 235 254 273 281 276 264 253 248 254 262 277 288 305 325 342 358 14 30 358 347 11 0 343 5 12 12 12 14 19 14 6 358 353 348 343 330 312 321 327 328 331 332 331 331 330 332 333 334 334 335 337 339 341 345 347 348 349 351 350 346 346 349 351 353 357 3 8
220 221 220 219 222 222 221 225 229 230 228 222 217 213 212 218 229 233 233 247 258 260 262 263 256 248 247 246 258 271 273 279 297 321 345 5 351 349 357 340 323 343 6 14 4 356 6 11 10 8 9 7 355 335 313 319 323 321 325 326 324 323 320 321 323 326 329 330 331 332 333 337 341 344 346 348 349 348 345 346 346 348 351 355 2
224 225 224 220 220 220 219 221 228 232 231 229 226 225 224 227 236 236 233 243 251 250 256 260 254 248 243 242 249 256 260 259 262 284 301 319 340 353 350 337 323 323 331 346 343 338 347 350 350 10 13 5 360 346 328 326 322 317 320 320 319 318 316 316 318 321 325 325 325 327 328 333 340 344 345 344 347 348 345 344 343 344 346 349 355
226 227 226 223 220 221 222 225 232 235 235 235 234 235 236 236 241 241 235 242 251 256 262 263 257 254 250 248 250 253 256 255 257 271 280 296 310 306 330 335 331 328 324 319 324 328 337 335 322 320 341 339 337 336 332 331 322 317 318 316 314 315 315 317 320 321 323 323 323 325 329 335 342 345 345 341 341 344 344 341 340 341 342 345 349
225 226 227 224 220 220 222 228 239 243 240 239 237 237 239 239 242 246 242 245 257 263 266 267 263 262 259 255 253 255 255 252 255 264 271 277 275 242 248 291 302 317 318 317 325 324 323 328 318 309 329 335 333 330 332 331 325 323 323 321 320 319 316 316 319 320 322 323 324 327 331 336 340 342 343 341 335 335 338 337 336 337 338 340 345
222 224 227 224 220 219 222 230 243 249 246 243 241 238 237 239 247 255 256 256 263 267 268 270 268 267 268 265 261 258 256 255 257 260 263 262 252 240 239 243 245 269 294 299 307 310 312 318 316 314 328 338 338 332 330 329 329 332 334 334 331 325 320 319 320 321 323 324 326 329 331 331 333 336 340 341 336 331 330 331 331 333 334 335 339
224 226 227 224 221 220 225 234 244 252 251 248 247 243 238 243 251 255 260 267 270 269 268 266 267 270 272 272 270 266 263 263 262 261 260 258 252 245 243 244 243 243 253 268 281 288 293 301 307 308 314 323 328 328 324 322 329 336 340 340 334 329 328 328 327 326 324 324 326 329 330 330 329 331 334 336 334 330 328 327 326 327 330 332 334
228 230 229 226 224 223 224 231 234 243 251 250 250 249 245 248 254 254 260 269 270 267 263 261 265 272 274 275 274 273 271 270 270 268 264 259 254 252 251 251 250 245 243 250 266 277 279 289 300 303 303 308 314 319 319 318 323 332 337 339 336 335 334 332 333 335 330 326 328 331 333 333 330 328 327 326 325 326 324 324 324 323 326 329 330
231 233 231 226 226 225 225 227 229 238 251 255 256 256 255 259 264 265 266 271 269 265 264 265 266 270 274 274 273 274 274 274 275 274 271 265 258 255 254 256 258 255 251 255 270 283 286 289 300 304 308 311 310 313 319 319 321 326 332 337 339 341 340 338 340 343 339 331 328 328 329 329 330 328 328 326 325 324 322 321 322 321 322 325 327
235 234 229 226 229 229 229 232 234 239 250 258 261 264 265 268 270 266 265 269 270 266 266 269 267 268 273 274 273 273 274 275 277 277 274 271 267 262 259 259 264 265 261 264 275 286 290 293 299 304 310 314 312 312 317 319 321 326 331 336 338 338 342 346 345 345 347 341 331 326 324 323 324 325 327 329 328 327 325 322 321 320 320 321 323
236 235 232 231 235 236 236 240 242 244 249 255 261 268 272 275 273 267 263 267 268 264 264 267 266 265 269 271 272 272 272 274 277 278 277 275 272 271 267 264 267 270 268 269 275 281 288 294 296 300 306 309 308 311 315 318 321 326 331 335 337 337 341 348 348 346 350 349 342 335 328 321 318 318 319 321 324 325 326 323 321 321 320 320 320
230 235 236 238 243 246 246 248 251 253 255 257 262 267 272 276 276 271 268 271 271 266 264 266 266 266 267 270 273 272 273 276 279 280 279 277 276 274 273 270 269 271 271 272 276 279 284 290 293 298 305 308 308 311 315 319 322 325 330 335 338 338 341 343 339 338 344 348 348 346 340 332 324 322 320 321 322 321 319 317 317 318 319 318 318
224 230 237 241 246 251 252 252 255 259 263 266 269 270 271 274 276 272 270 272 274 273 271 272 271 271 268 268 271 273 273 276 279 281 282 284 285 281 278 278 277 279 279 279 282 284 283 287 292 297 303 307 309 312 316 319 320 322 327 332 333 334 338 339 333 330 336 340 343 345 345 343 339 336 334 331 329 326 320 315 312 313 314 313 313
225 226 230 237 244 252 258 260 260 264 267 271 274 275 273 273 276 275 271 271 274 276 276 275 273 271 269 267 270 271 271 274 277 280 284 289 290 286 284 285 285 286 286 286 290 292 290 289 292 296 301 304 305 308 315 320 319 318 321 326 327 327 331 334 332 331 331 331 333 336 339 340 340 340 339 337 335 333 328 323 318 315 312 309 307
229 226 226 232 241 249 256 262 265 270 273 274 276 278 278 276 277 278 275 272 272 274 276 276 273 270 267 267 269 269 269 272 274 276 281 285 286 286 287 290 291 291 289 289 292 294 293 293 294 296 298 301 302 304 312 320 321 320 319 321 321 322 325 328 329 328 327 326 329 331 333 334 336 337 338 337 336 336 333 330 329 324 316 307 300
232 232 231 234 241 245 249 257 264 267 271 273 274 277 280 281 279 278 277 277 273 271 274 276 276 273 270 267 266 265 268 272 275 276 277 281 284 285 285 289 292 291 289 289 290 292 293 294 294 295 296 298 300 303 309 315 317 316 315 311 310 314 319 323 325 325 324 325 326 326 327 329 330 333 334 334 335 337 335 333 334 333 324 310 297
230 231 233 237 241 244 248 255 260 260 260 262 266 272 278 281 281 278 277 278 275 271 273 275 275 276 276 272 266 265 270 274 276 276 275 277 281 281 282 287 291 291 288 288 287 287 289 289 288 289 291 292 295 300 305 305 305 308 313 311 307 310 312 313 318 322 322 322 321 319 323 325 324 327 330 331 332 335 335 333 333 334 329 318 302
231 232 235 237 238 240 245 250 255 255 253 255 261 267 271 275 278 276 276 280 280 276 276 275 275 276 276 274 273 276 279 278 277 277 277 277 277 278 279 282 285 286 286 285 284 282 282 282 284 287 288 288 292 296 298 299 300 303 306 305 302 306 307 304 310 318 321 321 319 314 319 321 319 321 326 326 326 330 331 329 329 328 327 321 306
235 237 239 238 236 234 235 239 245 246 248 255 262 267 270 271 274 274 274 278 281 280 278 276 275 276 276 275 277 281 284 285 283 283 283 283 281 280 280 280 281 281 280 280 281 282 282 281 282 284 284 285 289 293 295 296 298 298 300 300 296 298 302 299 302 311 317 320 319 312 314 318 317 316 320 322 324 325 324 324 326 325 324 323 314
234 235 236 238 239 237 236 237 241 242 245 253 261 267 270 271 275 274 271 269 271 273 275 274 276 278 278 278 278 277 281 287 289 287 287 288 287 285 284 282 281 280 278 276 276 277 280 282 285 285 284 285 288 290 292 294 297 299 299 298 293 290 291 291 293 298 307 314 315 310 309 313 312 309 313 318 320 320 321 325 328 327 323 323 319
236 237 238 240 241 239 238 240 242 242 246 252 257 264 269 271 275 275 271 266 263 264 267 270 274 278 280 282 283 282 284 289 291 290 288 289 291 290 289 288 286 285 282 279 277 276 275 274 274 276 279 281 282 286 292 295 296 295 294 293 293 291 289 286 287 292 299 306 308 304 301 306 307 301 304 310 313 316 323 328 330 329 326 323 318
237 240 241 242 242 242 243 244 245 245 247 250 251 257 265 270 274 274 271 267 263 262 265 267 270 274 278 281 283 285 288 290 292 292 290 288 289 290 289 288 287 289 289 287 285 283 280 276 273 274 278 282 283 287 293 296 293 291 288 288 290 290 289 287 287 293 300 304 304 297 293 301 307 299 298 306 309 309 316 324 327 329 327 325 321
228 235 239 241 244 247 246 245 247 249 252 254 255 257 261 266 268 268 268 266 264 263 266 269 272 273 276 278 279 282 286 288 290 291 291 288 287 287 287 285 284 284 286 287 285 281 278 277 274 274 278 281 281 284 289 291 290 291 290 290 290 289 290 290 289 292 297 301 299 286 280 293 303 297 296 304 307 302 306 317 324 329 330 327 324
214 222 229 230 233 239 240 242 247 250 255 259 259 257 257 258 259 259 261 265 266 266 268 272 274 276 277 277 278 280 282 286 289 291 292 290 287 284 284 284 284 281 281 285 289 289 286 281 277 277 279 281 281 282 285 286 286 288 290 290 290 288 286 286 284 285 289 292 285 267 271 290 297 292 294 300 303 300 302 307 314 323 330 330 325
184 189 201 211 215 222 230 239 248 251 257 262 258 252 249 249 250 252 255 260 262 265 269 273 276 278 279 280 280 280 281 284 286 288 290 289 285 282 280 281 283 282 282 285 291 295 295 294 292 290 290 290 290 288 288 287 287 287 284 279 277 279 277 275 281 288 292 295 288 267 267 287 294 290 292 296 297 296 297 298 302 313 322 323 321
152 157 173 186 192 200 215 236 247 249 256 265 262 252 247 245 244 245 249 254 258 261 265 268 271 273 275 276 277 277 277 279 282 284 286 285 281 277 275 277 279 280 283 287 289 291 293 294 295 296 295 294 294 292 290 288 285 283 277 273 273 273 267 268 279 289 293 297 295 272 258 283 298 297 296 299 297 292 291 288 292 303 311 312 312
123 129 137 141 144 155 166 173 205 239 256 268 270 262 254 250 246 245 247 253 259 262 264 266 269 271 272 274 276 277 278 279 281 284 284 281 279 275 271 271 272 273 281 288 289 288 289 290 291 292 292 292 293 293 293 291 288 280 274 273 273 265 257 265 276 283 289 296 297 284 273 289 301 300 299 303 301 297 294 288 287 295 300 300 301